Terminal Aerodrome Forecast
Issued by NWS Sterling, VA

Current Version | Previous Version | Graphics & Text | Print | Product List | Glossary On
Versions: 1 2 3 4 5 6 7 8 9 10 11 12 13 14 15 16 17 18 19 20 21 22 23 24
000
FTUS41 KLWX 011900 AAA
TAFDCA
TAF AMD
KDCA 011933Z 0120/0218 22007KT P6SM VCTS BKN050CB
      TEMPO 0120/0121 2SM TSRA OVC040CB
     FM012300 20005KT P6SM BKN090
     FM020200 20004KT P6SM FEW090 SCT250
     FM020800 27005KT P6SM SCT250=

USA.gov is the U.S. government's official web portal to all federal, state and local government web resources and services.